• In Netherlands
  • List of Countries
  • For 7 days
  • Water Temperature
  • Satellite Maps
  • Weather Map
  • Weather Widgets
  • user-avatar
    Login

    Hourly Weather Idzhewan

    Today, 19 September, Tuesday

    Time Temperature Precipitation Wind Pressure Humidity
    00:00 +20°C° 0.1 mm 1 mps 696 mmHg 57%
    01:00 +20°C° 0 mm 1 mps 696 mmHg 57%
    02:00 +20°C° 0 mm 1 mps 696 mmHg 58%
    03:00 +20°C° 0 mm 1 mps 696 mmHg 60%
    04:00 +20°C° 0 mm 1 mps 695 mmHg 59%
    05:00 +19°C° 0 mm 1 mps 695 mmHg 59%
    06:00 +19°C° 0 mm 1 mps 695 mmHg 59%
    07:00 +22°C° 0 mm 1 mps 696 mmHg 51%
    08:00 +24°C° 0 mm 1 mps 696 mmHg 43%
    09:00 +27°C° 0 mm 1 mps 697 mmHg 34%
    10:00 +28°C° 0 mm 1 mps 697 mmHg 31%
    11:00 +29°C° 0 mm 2 mps 696 mmHg 29%
    12:00 +30°C° 0 mm 2 mps 696 mmHg 26%
    13:00 +31°C° 0 mm 2 mps 696 mmHg 26%
    14:00 +31°C° 0 mm 2 mps 696 mmHg 26%
    15:00 +31°C° 0 mm 3 mps 695 mmHg 25%
    16:00 +29°C° 0 mm 2 mps 695 mmHg 30%
    17:00 +27°C° 0 mm 2 mps 695 mmHg 34%
    18:00 +25°C° 0 mm 1 mps 695 mmHg 39%
    19:00 +24°C° 0 mm 1 mps 695 mmHg 41%
    20:00 +23°C° 0 mm 1 mps 695 mmHg 44%
    21:00 +22°C° 0 mm 1 mps 696 mmHg 47%
    22:00 +22°C° 0 mm 1 mps 696 mmHg 49%
    23:00 +21°C° 0 mm 1 mps 696 mmHg 51%

    Tomorrow, 20 September, Wednesday

    Time Temperature Precipitation Wind Pressure Humidity
    00:00 +21°C° 0 mm 1 mps 696 mmHg 53%
    01:00 +21°C° 0 mm 1 mps 696 mmHg 53%
    02:00 +20°C° 0 mm 1 mps 696 mmHg 54%
    03:00 +20°C° 0 mm 1 mps 696 mmHg 55%
    04:00 +20°C° 0 mm 1 mps 696 mmHg 55%
    05:00 +19°C° 0 mm 1 mps 695 mmHg 56%
    06:00 +19°C° 0 mm 1 mps 695 mmHg 57%
    07:00 +21°C° 0 mm 1 mps 696 mmHg 50%
    08:00 +24°C° 0 mm 1 mps 696 mmHg 42%
    09:00 +27°C° 0 mm 1 mps 696 mmHg 35%
    10:00 +28°C° 0 mm 1 mps 696 mmHg 32%
    11:00 +29°C° 0 mm 2 mps 696 mmHg 29%
    12:00 +31°C° 0 mm 2 mps 696 mmHg 26%
    13:00 +31°C° 0 mm 2 mps 696 mmHg 26%
    14:00 +31°C° 0 mm 2 mps 695 mmHg 26%
    15:00 +31°C° 0 mm 3 mps 695 mmHg 26%
    16:00 +29°C° 0 mm 2 mps 695 mmHg 33%
    17:00 +27°C° 0 mm 2 mps 695 mmHg 39%
    18:00 +25°C° 0 mm 1 mps 694 mmHg 45%
    19:00 +24°C° 0 mm 1 mps 695 mmHg 50%
    20:00 +23°C° 0 mm 1 mps 695 mmHg 54%
    21:00 +22°C° 0 mm 1 mps 695 mmHg 58%
    22:00 +22°C° 0 mm 1 mps 695 mmHg 59%
    23:00 +21°C° 0 mm 1 mps 695 mmHg 61%

    Day after tomorrow, 21 September, Thursday

    Time Temperature Precipitation Wind Pressure Humidity
    00:00 +21°C° 0 mm 1 mps 695 mmHg 62%
    01:00 +21°C° 0 mm 1 mps 695 mmHg 63%
    02:00 +20°C° 0 mm 1 mps 695 mmHg 64%
    03:00 +20°C° 0 mm 1 mps 695 mmHg 64%
    04:00 +20°C° 0 mm 1 mps 695 mmHg 64%
    05:00 +20°C° 0 mm 1 mps 695 mmHg 63%
    06:00 +19°C° 0 mm 1 mps 695 mmHg 63%
    07:00 +22°C° 0 mm 1 mps 695 mmHg 54%
    08:00 +25°C° 0 mm 1 mps 695 mmHg 45%
    09:00 +27°C° 0 mm 1 mps 696 mmHg 36%
    10:00 +29°C° 0 mm 2 mps 695 mmHg 33%
    11:00 +30°C° 0 mm 2 mps 695 mmHg 30%
    12:00 +31°C° 0 mm 2 mps 695 mmHg 27%
    13:00 +31°C° 0 mm 3 mps 695 mmHg 28%
    14:00 +33°C° 0 mm 3 mps 694 mmHg 28%
    15:00 +33°C° 0 mm 3 mps 694 mmHg 28%
    16:00 +30°C° 0 mm 3 mps 694 mmHg 34%
    17:00 +28°C° 0 mm 2 mps 693 mmHg 40%
    18:00 +25°C° 0 mm 2 mps 693 mmHg 45%
    19:00 +25°C° 0 mm 1 mps 693 mmHg 48%
    20:00 +24°C° 0 mm 1 mps 694 mmHg 51%
    21:00 +23°C° 0 mm 1 mps 694 mmHg 54%
    22:00 +22°C° 0 mm 1 mps 694 mmHg 56%
    23:00 +22°C° 0 mm 1 mps 694 mmHg 59%

    22 September, Friday

    Time Temperature Precipitation Wind Pressure Humidity
    00:00 +21°C° 0 mm 1 mps 694 mmHg 61%
    01:00 +20°C° 0 mm 1 mps 694 mmHg 63%
    02:00 +20°C° 0 mm 1 mps 694 mmHg 65%
    03:00 +19°C° 0 mm 1 mps 694 mmHg 66%
    04:00 +19°C° 0 mm 1 mps 694 mmHg 67%
    05:00 +19°C° 0 mm 1 mps 694 mmHg 68%
    06:00 +18°C° 0 mm 1 mps 694 mmHg 68%
    07:00 +21°C° 0 mm 1 mps 694 mmHg 58%
    08:00 +23°C° 0 mm 1 mps 694 mmHg 49%
    09:00 +26°C° 0 mm 2 mps 695 mmHg 39%
    10:00 +27°C° 0 mm 2 mps 694 mmHg 36%
    11:00 +28°C° 0 mm 2 mps 694 mmHg 32%
    12:00 +29°C° 0 mm 3 mps 694 mmHg 29%
    13:00 +30°C° 0 mm 3 mps 693 mmHg 29%
    14:00 +30°C° 0 mm 3 mps 693 mmHg 28%
    15:00 +30°C° 0 mm 3 mps 693 mmHg 28%
    16:00 +28°C° 0 mm 3 mps 693 mmHg 33%
    17:00 +26°C° 0 mm 2 mps 693 mmHg 38%
    18:00 +24°C° 0 mm 1 mps 693 mmHg 43%
    19:00 +23°C° 0 mm 1 mps 693 mmHg 45%
    20:00 +21°C° 0 mm 2 mps 694 mmHg 47%
    21:00 +20°C° 0 mm 2 mps 694 mmHg 49%
    22:00 +21°C° 0 mm 1 mps 694 mmHg 50%
    23:00 +20°C° 0 mm 1 mps 694 mmHg 50%

    23 September, Saturday

    Time Temperature Precipitation Wind Pressure Humidity
    00:00 +20°C° 0 mm 1 mps 695 mmHg 50%
    01:00 +19°C° 0 mm 1 mps 695 mmHg 51%
    02:00 +19°C° 0 mm 1 mps 695 mmHg 52%
    03:00 +18°C° 0 mm 1 mps 695 mmHg 53%
    04:00 +18°C° 0 mm 1 mps 695 mmHg 54%
    05:00 +18°C° 0 mm 1 mps 695 mmHg 55%
    06:00 +16°C° 0 mm 1 mps 695 mmHg 56%
    07:00 +20°C° 0 mm 1 mps 695 mmHg 49%
    08:00 +22°C° 0 mm 1 mps 696 mmHg 42%
    09:00 +25°C° 0 mm 1 mps 696 mmHg 35%
    10:00 +26°C° 0 mm 2 mps 696 mmHg 33%
    11:00 +27°C° 0 mm 2 mps 696 mmHg 30%
    12:00 +29°C° 0 mm 3 mps 696 mmHg 28%
    13:00 +29°C° 0 mm 3 mps 696 mmHg 28%
    14:00 +29°C° 0 mm 3 mps 696 mmHg 27%
    15:00 +29°C° 0 mm 3 mps 695 mmHg 27%
    16:00 +27°C° 0 mm 3 mps 695 mmHg 32%
    17:00 +25°C° 0 mm 2 mps 695 mmHg 37%
    18:00 +23°C° 0 mm 1 mps 695 mmHg 42%
    19:00 +22°C° 0 mm 1 mps 696 mmHg 44%
    20:00 +21°C° 0 mm 1 mps 696 mmHg 46%
    21:00 +20°C° 0 mm 1 mps 696 mmHg 48%
    22:00 +20°C° 0 mm 1 mps 696 mmHg 49%
    23:00 +19°C° 0 mm 1 mps 696 mmHg 49%

    24 September, Sunday

    Time Temperature Precipitation Wind Pressure Humidity
    00:00 +19°C° 0 mm 1 mps 696 mmHg 50%
    01:00 +18°C° 0 mm 1 mps 696 mmHg 51%
    02:00 +18°C° 0 mm 1 mps 696 mmHg 53%
    03:00 +18°C° 0 mm 1 mps 696 mmHg 54%
    04:00 +16°C° 0 mm 1 mps 696 mmHg 55%
    05:00 +16°C° 0 mm 1 mps 696 mmHg 55%
    06:00 +16°C° 0 mm 1 mps 697 mmHg 56%
    07:00 +19°C° 0 mm 1 mps 697 mmHg 49%
    08:00 +22°C° 0 mm 1 mps 697 mmHg 41%
    09:00 +25°C° 0 mm 1 mps 697 mmHg 34%
    10:00 +26°C° 0 mm 2 mps 697 mmHg 32%
    11:00 +27°C° 0 mm 2 mps 697 mmHg 30%
    12:00 +28°C° 0 mm 2 mps 697 mmHg 28%
    13:00 +29°C° 0 mm 3 mps 697 mmHg 27%
    14:00 +29°C° 0 mm 3 mps 696 mmHg 27%
    15:00 +29°C° 0 mm 3 mps 696 mmHg 27%
    16:00 +27°C° 0.1 mm 3 mps 696 mmHg 32%
    17:00 +25°C° 0.1 mm 2 mps 696 mmHg 37%
    18:00 +23°C° 0.1 mm 1 mps 696 mmHg 42%
    19:00 +22°C° 0 mm 1 mps 696 mmHg 44%
    20:00 +21°C° 0 mm 1 mps 697 mmHg 46%
    21:00 +20°C° 0 mm 1 mps 697 mmHg 48%
    22:00 +20°C° 0 mm 1 mps 697 mmHg 49%
    23:00 +19°C° 0 mm 1 mps 697 mmHg 50%
    Show more